W4RJF Weather Reports


Display with metric or nautical units.
time (UTC)temp
F
wind
direction
speed
MPH
gust
MPH
rain 1hr
in
rain 24hr
in
rain mn
in
humidity
%
barometer
mb
20260504025507 47 22 0.0 0.0 0.00 0.00 0.00 80 1017.7
20260504025008 47 22 0.0 0.0 0.00 0.00 0.00 80 1017.7
20260504024523 47 22 0.0 0.0 0.00 0.00 0.00 80 1017.6
20260504024004 47 22 0.0 0.0 0.00 0.00 0.00 78 1017.6
20260504023506 48 22 0.0 0.0 0.00 0.00 0.00 78 1017.7
20260504023025 48 22 0.0 0.0 0.00 0.00 0.00 78 1017.6
20260504022507 48 22 0.0 0.0 0.00 0.00 0.00 78 1017.7
20260504022005 48 22 0.0 0.0 0.00 0.00 0.00 77 1017.7
20260504021514 48 22 0.0 0.0 0.00 0.00 0.00 75 1017.7
20260504021003 49 22 0.0 0.0 0.00 0.00 0.00 75 1017.6
20260504020503 49 22 0.0 0.0 0.00 0.00 0.00 74 1017.6
20260504020022 49 22 0.0 0.0 0.00 0.00 0.00 72 1017.6
20260504015508 49 22 0.0 0.0 0.00 0.00 0.00 72 1017.7
20260504015010 49 22 0.0 0.0 0.00 0.00 0.00 73 1017.6
20260504014526 50 22 0.0 0.0 0.00 0.00 0.00 73 1017.6
20260504014008 50 22 0.0 0.0 0.00 0.00 0.00 70 1017.5
20260504013506 50 22 0.0 0.0 0.00 0.00 0.00 69 1017.4
20260504013007 50 22 0.0 0.0 0.00 0.00 0.00 68 1017.4
20260504012503 50 22 0.0 0.0 0.00 0.00 0.00 68 1017.4
20260504012003 51 22 0.0 0.0 0.00 0.00 0.00 70 1017.3
20260504011512 51 22 0.0 0.0 0.00 0.00 0.00 69 1017.3
20260504011003 52 22 0.0 0.0 0.00 0.00 0.00 65 1017.4
20260504010506 52 22 0.0 0.0 0.00 0.00 0.00 65 1017.3
20260504010018 52 22 0.0 0.0 0.00 0.00 0.00 65 1017.1
20260504005504 52 22 0.0 0.0 0.00 0.00 0.00 66 1017.1
20260504005009 53 22 0.0 0.0 0.00 0.00 0.00 64 1017.0
20260504004522 53 22 0.0 0.0 0.00 0.00 0.00 65 1017.0
20260504004006 53 22 0.0 0.0 0.00 0.00 0.00 61 1016.9
20260504003509 54 22 0.0 0.0 0.00 0.00 0.00 59 1016.9
20260504003024 54 22 0.0 0.0 0.00 0.00 0.00 57 1016.8
20260504002507 55 22 0.0 0.0 0.00 0.00 0.00 56 1016.7
20260504002007 55 22 0.0 0.0 0.00 0.00 0.00 54 1016.7
20260504001506 56 22 0.0 0.0 0.00 0.00 0.00 52 1016.6
20260504001004 56 22 0.0 0.0 0.00 0.00 0.00 52 1016.6
20260504000506 57 22 0.0 0.0 0.00 0.00 0.00 50 1016.5
20260504000012 57 22 0.0 0.0 0.00 0.00 0.00 49 1016.5
20260503235505 58 22 0.0 0.0 0.00 0.00 0.00 48 1016.5
20260503235006 59 22 0.0 0.0 0.00 0.00 0.00 47 1016.4
20260503234516 59 22 0.0 0.0 0.00 0.00 0.00 46 1016.4
20260503234009 59 22 0.0 0.0 0.00 0.00 0.00 45 1016.4
20260503233505 60 22 0.0 0.0 0.00 0.00 0.00 49 1016.4
20260503233034 61 22 0.0 0.0 0.00 0.00 0.00 41 1016.4
20260503232510 61 22 0.0 0.0 0.00 0.00 0.00 41 1016.4
20260503232010 62 22 0.0 0.0 0.00 0.00 0.00 40 1016.4
20260503231528 63 22 0.0 2.0 0.00 0.00 0.00 37 1016.4
20260503231011 63 26 0.0 2.0 0.00 0.00 0.00 35 1016.5
20260503230505 63 347 0.0 2.0 0.00 0.00 0.00 41 1016.5
20260503230012 63 24 0.0 2.0 0.00 0.00 0.00 33 1016.5
20260503225504 63 315 0.0 2.0 0.00 0.00 0.00 33 1016.5
20260503225005 63 133 0.0 1.0 0.00 0.00 0.00 36 1016.4
20260503224517 64 126 0.0 3.0 0.00 0.00 0.00 33 1016.4
20260503224009 64 88 0.0 3.0 0.00 0.00 0.00 33 1016.4
20260503223507 64 212 0.0 2.0 0.00 0.00 0.00 32 1016.3
20260503223020 64 15 0.0 2.0 0.00 0.00 0.00 32 1016.4
20260503222509 64 130 0.0 2.0 0.00 0.00 0.00 35 1016.4
20260503222008 64 116 0.0 4.0 0.00 0.00 0.00 34 1016.4
20260503221529 65 217 0.0 4.0 0.00 0.00 0.00 32 1016.3
20260503221012 65 126 1.0 6.0 0.00 0.00 0.00 31 1016.2
20260503220506 65 360 0.0 6.0 0.00 0.00 0.00 33 1016.2
20260503220026 65 5 0.0 2.0 0.00 0.00 0.00 31 1016.2
20260503215504 65 300 0.0 7.0 0.00 0.00 0.00 31 1016.2
20260503215008 65 9 2.0 7.0 0.00 0.00 0.00 32 1016.2
20260503214513 65 188 1.0 3.0 0.00 0.00 0.00 31 1016.2
20260503214005 65 281 0.0 3.0 0.00 0.00 0.00 32 1016.2
20260503213506 65 208 1.0 4.0 0.00 0.00 0.00 31 1016.2
20260503213023 65 244 0.0 4.0 0.00 0.00 0.00 32 1016.3
20260503212506 65 5 1.0 4.0 0.00 0.00 0.00 30 1016.3
20260503212009 66 29 1.0 4.0 0.00 0.00 0.00 30 1016.3
20260503211524 66 104 1.0 4.0 0.00 0.00 0.00 30 1016.3
20260503211010 67 285 0.0 4.0 0.00 0.00 0.00 32 1016.4
20260503210508 68 298 1.0 4.0 0.00 0.00 0.00 28 1016.4
20260503210025 68 65 0.0 4.0 0.00 0.00 0.00 30 1016.4
20260503205509 68 338 1.0 8.0 0.00 0.00 0.00 28 1016.4
20260503205007 67 30 2.0 8.0 0.00 0.00 0.00 28 1016.5
20260503204528 67 9 0.0 6.0 0.00 0.00 0.00 31 1016.5
20260503204004 67 47 2.0 6.0 0.00 0.00 0.00 28 1016.6
20260503203507 68 64 1.0 5.0 0.00 0.00 0.00 28 1016.6
20260503203020 69 99 0.0 3.0 0.00 0.00 0.00 32 1016.6
20260503202507 67 10 1.0 3.0 0.00 0.00 0.00 32 1016.7
20260503202008 67 333 1.0 2.0 0.00 0.00 0.00 30 1016.7
20260503201522 67 108 0.0 4.0 0.00 0.00 0.00 28 1016.8
20260503201007 68 252 0.0 4.0 0.00 0.00 0.00 31 1017.0
20260503200512 67 15 1.0 4.0 0.00 0.00 0.00 31 1017.1
20260503200024 67 54 0.0 8.0 0.00 0.00 0.00 30 1017.2
20260503195508 67 5 0.0 8.0 0.00 0.00 0.00 32 1017.3
20260503195013 67 53 2.0 8.0 0.00 0.00 0.00 31 1017.4
20260503194527 66 299 1.0 8.0 0.00 0.00 0.00 30 1017.4
20260503194007 67 258 1.0 6.0 0.00 0.00 0.00 29 1017.5
20260503193512 68 67 0.0 6.0 0.00 0.00 0.00 32 1017.5
20260503193014 67 263 1.0 4.0 0.00 0.00 0.00 35 1017.5
20260503192508 66 312 1.0 3.0 0.00 0.00 0.00 31 1017.6
20260503192011 66 333 0.0 3.0 0.00 0.00 0.00 31 1017.6
20260503191527 66 100 1.0 4.0 0.00 0.00 0.00 32 1017.7
20260503191009 66 71 1.0 4.0 0.00 0.00 0.00 34 1017.8
20260503190508 66 14 2.0 5.0 0.00 0.00 0.00 35 1017.8
20260503190024 65 229 0.0 5.0 0.00 0.00 0.00 34 1017.7
20260503185508 65 352 2.0 5.0 0.00 0.00 0.00 32 1017.8
20260503185008 65 268 1.0 4.0 0.00 0.00 0.00 33 1017.9
20260503184528 64 73 1.0 5.0 0.00 0.00 0.00 35 1017.9
20260503184014 65 331 2.0 4.0 0.00 0.00 0.00 32 1017.9
20260503183507 65 184 0.0 7.0 0.00 0.00 0.00 33 1017.9
20260503183026 65 203 1.0 7.0 0.00 0.00 0.00 32 1018.0
20260503182509 65 232 0.0 9.0 0.00 0.00 0.00 33 1018.1
20260503182009 64 107 0.0 9.0 0.00 0.00 0.00 35 1018.1
20260503181518 64 253 0.0 5.0 0.00 0.00 0.00 36 1018.2
20260503181004 64 234 1.0 5.0 0.00 0.00 0.00 32 1018.3
20260503180509 64 64 1.0 3.0 0.00 0.00 0.00 36 1018.3
20260503180022 64 18 0.0 3.0 0.00 0.00 0.00 41 1018.3
20260503175508 63 282 1.0 3.0 0.00 0.00 0.00 40 1018.4
20260503175006 62 11 2.0 3.0 0.00 0.00 0.00 37 1018.5
20260503174526 61 207 0.0 3.0 0.00 0.00 0.00 40 1018.5
20260503174007 61 281 0.0 6.0 0.00 0.00 0.00 39 1018.5
20260503173029 61 344 0.0 4.0 0.00 0.00 0.00 38 1018.5
20260503172510 60 134 0.0 6.0 0.00 0.01 0.00 37 1018.5
20260503172011 61 308 1.0 6.0 0.00 0.01 0.00 41 1018.6
20260503171526 59 97 0.0 3.0 0.00 0.01 0.00 39 1018.6
20260503170506 60 294 2.0 4.0 0.00 0.01 0.00 40 1018.8
20260503110504 40 348 0.0 1.0 0.00 0.13 0.00 93 1018.2
20260503090508 40 338 0.0 0.0 0.00 0.14 0.00 93 1016.7
20260503081520 41 348 0.0 2.0 0.00 0.14 0.00 94 1016.0
20260503081010 41 348 0.0 2.0 0.00 0.14 0.00 94 1015.8
20260503072003 42 158 0.0 0.0 0.00 0.14 0.00 95 1015.4
20260503071518 42 158 0.0 0.0 0.00 0.14 0.00 95 1015.4
20260503071003 42 158 0.0 0.0 0.00 0.14 0.00 95 1015.5
20260503055008 45 158 0.0 0.0 0.00 0.14 0.00 95 1015.1
20260503054526 45 158 0.0 0.0 0.00 0.14 0.00 95 1015.0
20260503053506 46 158 0.0 0.0 0.00 0.14 0.00 95 1015.0
20260503053023 46 158 0.0 0.0 0.00 0.14 0.00 95 1014.8
20260503052509 46 158 0.0 0.0 0.00 0.14 0.00 95 1014.8
20260503051525 46 158 0.0 0.0 0.00 0.14 0.00 95 1015.0
20260503051009 46 158 0.0 0.0 0.00 0.14 0.00 95 1015.0
20260503050508 46 158 0.0 0.0 0.00 0.14 0.00 95 1015.0
20260503050022 46 158 0.0 0.0 0.00 0.14 0.00 95 1015.1
20260503045509 46 158 0.0 0.0 0.00 0.14 0.00 95 1015.1
20260503044520 46 158 0.0 0.0 0.00 0.14 0.00 95 1015.1
20260503043508 46 158 0.0 0.0 0.00 0.14 0.00 95 1014.9
20260503043024 46 158 0.0 0.0 0.00 0.14 0.00 95 1014.9
20260503042508 46 158 0.0 0.0 0.00 0.14 0.00 95 1015.0
20260503041535 46 158 0.0 0.0 0.00 0.14 0.00 95 1014.9
20260503035508 47 158 0.0 0.0 0.00 0.14 0.14 95 1014.8
20260503035010 47 158 0.0 0.0 0.00 0.14 0.14 95 1014.7
20260503034516 47 158 0.0 0.0 0.00 0.14 0.14 95 1014.6
20260503033022 48 158 0.0 0.0 0.00 0.14 0.14 95 1014.5
20260503032511 48 158 0.0 0.0 0.00 0.14 0.14 95 1014.5
20260503031521 48 158 0.0 0.0 0.00 0.14 0.14 95 1014.5
20260503030510 48 158 0.0 0.0 0.00 0.14 0.14 95 1014.3
20260503030028 48 158 0.0 0.0 0.00 0.14 0.14 95 1014.3